TimeCST,TemperatureF,Dew PointF,Humidity,Sea Level PressureIn,VisibilityMPH,Wind Direction,Wind SpeedMPH,Gust SpeedMPH,PrecipitationIn,Events,Conditions,WindDirDegrees,DateUTC
12:53 AM,33.1,30.9,92,30.20,10.0,NNE,10.4,-,N/A,,Overcast,20,2013-01-15 06:53:00
1:53 AM,33.8,30.2,87,30.20,10.0,NNE,10.4,-,N/A,,Overcast,20,2013-01-15 07:53:00
2:53 AM,32.0,30.9,96,30.17,8.0,NNE,10.4,-,N/A,,Overcast,20,2013-01-15 08:53:00
3:53 AM,32.0,30.0,92,30.17,10.0,NNE,11.5,-,N/A,,Overcast,20,2013-01-15 09:53:00
4:53 AM,32.0,30.0,92,30.15,9.0,NNE,11.5,-,N/A,,Overcast,20,2013-01-15 10:53:00
5:53 AM,32.0,30.9,96,30.16,8.0,NNE,6.9,-,N/A,,Overcast,30,2013-01-15 11:53:00
6:53 AM,32.0,30.9,96,30.14,8.0,North,9.2,-,N/A,,Overcast,10,2013-01-15 12:53:00
7:53 AM,33.1,30.9,92,30.17,7.0,NNE,9.2,-,0.00,Rain,Light Rain,20,2013-01-15 13:53:00
8:53 AM,33.1,30.9,92,30.16,4.0,North,9.2,-,0.00,Rain,Light Rain,10,2013-01-15 14:53:00
9:53 AM,33.1,32.0,96,30.14,4.0,NNE,10.4,-,0.00,Rain,Light Rain,20,2013-01-15 15:53:00
10:09 AM,33.8,32.0,93,30.11,2.0,NNE,12.7,-,0.01,Rain,Light Rain,20,2013-01-15 16:09:00
10:24 AM,33.8,32.0,93,30.12,4.0,NNE,6.9,-,0.01,Rain,Light Rain,20,2013-01-15 16:24:00
10:53 AM,34.0,32.0,92,30.10,7.0,NE,8.1,-,0.01,,Overcast,40,2013-01-15 16:53:00
11:45 AM,33.8,32.0,93,30.11,1.8,Calm,Calm,-,0.03,Rain,Light Rain,0,2013-01-15 17:45:00
11:53 AM,33.1,32.0,96,30.11,1.0,NNW,6.9,-,0.06,Rain,Rain,340,2013-01-15 17:53:00
12:04 PM,33.8,32.0,93,30.13,2.0,NW,9.2,-,0.01,Rain,Light Rain,320,2013-01-15 18:04:00
12:18 PM,33.8,32.0,93,30.12,1.2,NNW,9.2,-,0.07,Rain,Heavy Rain,330,2013-01-15 18:18:00
12:44 PM,33.8,30.2,87,30.09,3.0,North,9.2,-,0.13,Rain,Light Rain,360,2013-01-15 18:44:00
12:53 PM,33.1,30.9,92,30.11,3.0,North,9.2,-,0.14,Rain,Light Rain,350,2013-01-15 18:53:00
1:53 PM,33.1,30.9,92,30.08,8.0,North,9.2,-,0.02,Rain,Light Rain,10,2013-01-15 19:53:00
2:53 PM,33.1,30.9,92,30.11,8.0,NNW,8.1,-,0.03,Rain,Light Rain,340,2013-01-15 20:53:00
3:53 PM,32.0,30.9,96,30.07,7.0,North,9.2,-,0.00,,Overcast,10,2013-01-15 21:53:00
4:53 PM,33.1,32.0,96,30.07,5.0,NE,6.9,-,0.03,Rain,Light Rain,40,2013-01-15 22:53:00
5:53 PM,34.0,33.1,96,30.07,6.0,NNE,5.8,-,0.03,Rain,Light Rain,30,2013-01-15 23:53:00
6:53 PM,33.1,33.1,100,30.08,4.0,North,5.8,-,0.04,Rain,Rain,350,2013-01-16 00:53:00
7:53 PM,34.0,33.1,96,30.08,4.0,North,6.9,-,0.07,Rain,Light Rain,350,2013-01-16 01:53:00
8:53 PM,34.0,33.1,96,30.07,10.0,North,6.9,-,0.00,,Overcast,10,2013-01-16 02:53:00
9:53 PM,34.0,33.1,96,30.09,4.0,North,4.6,-,0.03,Rain,Rain,350,2013-01-16 03:53:00
10:53 PM,33.1,32.0,96,30.09,4.0,North,6.9,-,0.09,Rain,Rain,350,2013-01-16 04:53:00
11:53 PM,33.8,32.0,93,30.10,8.0,North,6.9,-,N/A,Rain,Light Rain,350,2013-01-16 05:53:00